Location: Poughquag
(41.6090°N, 73.6820°W)
Time: 19:44:34
(UTC-05:00)

A-11 Canister half - Pass Details

Date: 14 December 2023
Orbit: 1526 x 1682 km, 47.3° (Epoch: 23 February)

Event Time Altitude Azimuth Distance (km) Brightness Sun altitude
Rises 21:59:37 0° 296° (WNW) 4,936 12.1 -60.6°
Reaches altitude 10° 22:02:48 10° 295° (WNW) 3,941 11.4 -61.2°
Enters shadow 22:04:30 17° 294° (WNW) 3,423 11.0 -61.4°
